User: anonymous   Login
Location: Unspecified
(0.0000°N, 0.0000°E)
Time: 22:45:34
(UTC+00:00)
Language:

Nimbus 4 - Orbit

View from above orbital plane
View from above orbital plane
View from above satellite
View from above satellite

Ground track
Ground track

The orbit data is extracted from the following two-line orbital elements,

1  4362U 70025A   17179.43071529 -.00000020 +00000-0 +43232-4 0  9996
2  4362 100.0159 083.8345 0008207 060.1197 065.7720 13.44586720316596
Epoch (UTC): 28 June 2017 10:20:13
Eccentricity: 0.0008207
inclination: 100.0159°
perigee height: 1086 km
apogee height: 1098 km
right ascension of ascending node: 83.8345°
argument of perigee: 60.1197°
revolutions per day: 13.44586720
mean anomaly at epoch: 65.7720°
orbit number at epoch: 31659

The dashed part of the orbit path shows where the satellite is in the earth's shadow,  

DLR